Location: Rounton
(54.4000°N, 1.3500°W)
Time: 12:39:19
(UTC+00:00)

Transit 2A - Pass Details

Date: 02 December 2021
Orbit: 591 x 967 km, 66.7° (Epoch: 17 January)

Event Time Altitude Azimuth Distance (km) Brightness Sun altitude
Rises 23:13:20 0° 163° (SSE) 3,329 - -56.7°
Reaches altitude 10° 23:16:26 10° 145° (SE) 2,472 - -56.9°
Maximum altitude 23:20:10 18° 104° (ESE) 2,038 - -57.0°
Drops below altitude 10° 23:24:06 10° 64° (ENE) 2,626 - -57.2°
Sets 23:27:31 0° 47° (NE) 3,619 - -57.3°
